Hourly Data Report for October 01, 2014

All times are specified in Local Standard Time (LST). Add 1 hour to adjust for Daylight Saving Time where and when it is observed.

GRISE FIORD CLIMATE
NUNAVUT

76°25'22.040" N
82°54'08.020" W
44.50 m
2402351
71971
NGC

Download Data

Hourly Data (October 2014)
Hourly Data Report for October 1, 2014
Temp Definition
°C
Dew Point Temp Definition
°C
Rel Hum Definition
%
Wind Dir Definition
10's deg

Wind Spd Definition
km/h
Visibility Definition
km
Stn Press Definition
kPa
Hmdx Definition


Wind Chill Definition


Weather Definition


TIME
00:00 -3.1 -13.7 44 4 47   100.10   -12 LegendNANA
01:00 -3.4 -13.5 46 3 57   100.09   -13 LegendNANA
02:00 -2.6 -13.9 42 2 52   100.13   -12 LegendNANA
03:00 -3.3 -13.9 44 3 55   100.16   -13 LegendNANA
04:00 -3.5 -13.7 45 1 49   100.26   -13 LegendNANA
05:00 -3.6 -13.6 46 3 41   100.28   -12 LegendNANA
06:00 -4.3 -13.6 48 4 30   100.37   -12 LegendNANA
07:00 -4.4 -14.0 47 5 22   100.40   -11 LegendNANA
08:00 -4.6 -14.2 47 5 11   100.42   -9 LegendNANA
09:00 -4.7 -14.1 48 7 13   100.39   -10 LegendNANA
10:00 -4.8 -13.8 49 4 13   100.40   -10 LegendNANA
11:00 -5.1 -13.6 51 33 18   100.43   -11 LegendNANA
12:00 -4.9 -13.5 51 30 17   100.39   -11 LegendNANA
13:00 -5.0 -13.6 51 34 13   100.39   -10 LegendNANA
14:00 -4.8 -13.6 50 8 21   100.39   -11 LegendNANA
15:00 -4.8 -13.5 50 7 34   100.37   -13 LegendNANA
16:00 -5.3 -13.8 51 5 44   100.36   -15 LegendNANA
17:00 -5.1 -13.9 50 3 51   100.31   -15 LegendNANA
18:00 -5.9 -13.5 55 36 42   100.41   -15 LegendNANA
19:00 -5.3 -13.6 52 34 44   100.40   -15 LegendNANA
20:00 -5.7 -13.6 54 36 59   100.37   -17 LegendNANA
21:00 -5.4 -13.5 53 3 59   100.32   -16 LegendNANA
22:00 -5.1 -13.4 52 1 72   100.29   -17 LegendNANA
23:00 -4.2 -13.1 50 32 35   100.34   -13 LegendNANA

Notes on Data Quality.

Legend

  • E = Estimated
  • M = Missing
  • NA = Not Available
  • ‡ = Partner data that is not subject to review by the National Climate Archives
Date modified: